Location: Unspecified
(0.0000°N, 0.0000°E)
Time: 13:39:32
(UTC+00:00)

Courier 1B Rocket - Pass Details

Date: 21 November 2019
Orbit: 920 x 1202 km, 28.2° (Epoch: 08 December)

Event Time Altitude Azimuth Distance (km) Brightness Sun altitude
Rises 08:32:31 0° 223° (SW) 3,566 7.8 38.7°
Reaches altitude 10° 08:35:25 10° 213° (SSW) 2,610 7.3 39.4°
Maximum altitude 08:40:55 32° 151° (SSE) 1,522 7.3 40.6°
Drops below altitude 10° 08:46:27 10° 90° (E) 2,636 8.2 41.8°
Sets 08:49:23 0° 80° (E) 3,607 8.5 42.5°
